Date String (YYYY-MM-DD hh:mm:ss) UTC,Instrument flags,Ambient pressure (hPa),Sample flow (lpm),Bypass flow (lpm),Sample temperature (°C),Ambient temperature (°C),ASC tube jacket temperature (°C),LED temperature (°C),Box temperature (°C),Sample RH (%),Span deviation,Mass concentration (μg/m³),Mass concentration (μg/m³),Mass concentration (μg/m³)
DateTimeUTC,F1_M11,P_M11,Q1_M11,Q2_M11,T1_M11,T2_M11,T3_M11,T4_M11,T5_M11,U1_M11,ZSPAN_M11,X2_M11,X0_M11,X1_M11
2022-01-17 07:00:00,,0825.6,5.01,0.00,22.6,22.3,00.0,31.5,24.4,10.4,0000.0,0003.22,0008.98,0002.73
2022-01-17 07:01:00,,0825.6,5.00,0.00,22.6,22.2,00.0,31.5,24.4,10.4,0000.0,0003.26,0009.15,0002.74
2022-01-17 07:02:00,,0825.6,4.99,0.00,22.6,22.1,00.0,31.5,24.4,10.4,0000.0,0003.26,0008.61,0002.75
2022-01-17 07:03:00,,0825.5,5.02,0.00,22.6,22.1,00.0,31.5,24.4,10.5,0000.0,0003.27,0008.65,0002.74
2022-01-17 07:04:00,,0825.5,5.00,0.00,22.6,22.0,00.0,31.5,24.3,10.5,0000.0,0003.26,0009.30,0002.76
2022-01-17 07:05:00,,0825.5,5.00,0.00,22.6,22.0,00.0,31.5,24.4,10.5,0000.0,0003.28,0008.98,0002.80
2022-01-17 07:06:00,,0825.5,4.99,0.00,22.6,22.0,00.0,31.5,24.3,10.5,0000.0,0003.28,0008.62,0002.81
2022-01-17 07:07:00,,0825.5,4.99,0.00,22.6,21.9,00.0,31.5,24.3,10.5,0000.0,0003.31,0008.67,0002.82
2022-01-17 07:08:00,,0825.5,5.01,0.00,22.5,21.9,00.0,31.5,24.3,10.5,0000.0,0003.27,0008.46,0002.82
2022-01-17 07:09:00,,0825.5,5.00,0.00,22.5,21.9,00.0,31.5,24.3,10.5,0000.0,0003.24,0008.20,0002.81
2022-01-17 07:10:00,,0825.5,4.99,0.00,22.5,21.8,00.0,31.5,24.3,10.5,0000.0,0003.24,0008.16,0002.79
2022-01-17 07:11:00,,0825.5,5.02,0.00,22.5,21.8,00.0,31.5,24.3,10.5,0000.0,0003.23,0007.75,0002.76
2022-01-17 07:12:00,,0825.5,5.00,0.00,22.5,21.8,00.0,31.5,24.2,10.5,0000.0,0003.21,0007.30,0002.75
2022-01-17 07:13:00,,0825.4,4.99,0.00,22.5,21.8,00.0,31.5,24.2,10.6,0000.0,0003.22,0007.91,0002.74
2022-01-17 07:14:00,,0825.4,4.99,0.00,22.5,21.8,00.0,31.5,24.2,10.6,0000.0,0003.21,0007.91,0002.74
2022-01-17 07:15:00,,0825.4,5.02,0.00,22.5,21.8,00.0,31.5,24.2,10.6,0000.0,0003.25,0007.39,0002.72
2022-01-17 07:16:00,,0825.4,5.00,0.00,22.5,21.8,00.0,31.5,24.2,10.6,0000.0,0003.24,0007.24,0002.70
2022-01-17 07:17:00,,0825.4,4.99,0.00,22.5,21.7,00.0,31.5,24.2,10.6,0000.0,0003.25,0007.34,0002.69
2022-01-17 07:18:00,,0825.4,5.00,0.00,22.4,21.7,00.0,31.5,24.2,10.6,0000.0,0003.26,0007.45,0002.69
2022-01-17 07:19:00,,0825.4,5.01,0.00,22.4,21.7,00.0,31.5,24.2,10.6,0000.0,0003.30,0007.74,0002.69
2022-01-17 07:20:00,,0825.4,4.99,0.00,22.4,21.7,00.0,31.5,24.2,10.6,0000.0,0003.32,0008.00,0002.68
2022-01-17 07:21:00,,0825.4,5.00,0.00,22.4,21.7,00.0,31.5,24.1,10.6,0000.0,0003.29,0007.64,0002.68
2022-01-17 07:22:00,,0825.3,5.01,0.00,22.4,21.7,00.0,31.5,24.1,10.6,0000.0,0003.29,0007.88,0002.68
2022-01-17 07:23:00,,0825.3,4.99,0.00,22.4,21.6,00.0,31.4,24.1,10.6,0000.0,0003.28,0008.15,0002.67
2022-01-17 07:24:00,,0825.3,5.02,0.00,22.4,21.6,00.0,31.4,24.1,10.6,0000.0,0003.26,0007.75,0002.66
2022-01-17 07:25:00,,0825.2,5.00,0.00,22.4,21.6,00.0,31.4,24.1,10.6,0000.0,0003.26,0008.19,0002.67
2022-01-17 07:26:00,,0825.2,4.99,0.00,22.4,21.6,00.0,31.4,24.1,10.6,0000.0,0003.23,0008.53,0002.67
2022-01-17 07:27:00,,0825.2,5.01,0.00,22.3,21.6,00.0,31.4,24.1,10.6,0000.0,0003.21,0009.08,0002.66
2022-01-17 07:28:00,,0825.2,4.99,0.00,22.4,21.7,00.0,31.4,24.1,10.6,0000.0,0003.21,0010.06,0002.65
2022-01-17 07:29:00,,0825.2,5.00,0.00,22.4,22.3,00.0,31.4,24.3,10.6,0000.0,0003.20,0010.28,0002.63
2022-01-17 07:30:00,,0825.3,5.00,0.00,22.6,22.9,00.0,31.5,24.5,10.5,0000.0,0003.18,0010.22,0002.61
2022-01-17 07:31:00,,0825.2,5.00,0.00,22.6,23.0,00.0,31.5,24.6,10.5,0000.0,0003.17,0010.00,0002.60
2022-01-17 07:32:00,,0825.1,5.00,0.00,22.7,22.8,00.0,31.5,24.6,10.5,0000.0,0003.15,0010.01,0002.60
2022-01-17 07:33:00,,0825.1,5.01,0.00,22.7,22.7,00.0,31.5,24.6,10.5,0000.0,0003.15,0010.13,0002.60
2022-01-17 07:34:00,,0825.0,4.99,0.00,22.7,22.5,00.0,31.5,24.5,10.5,0000.0,0003.16,0009.48,0002.60
2022-01-17 07:35:00,,0825.0,4.99,0.00,22.7,22.4,00.0,31.6,24.5,10.5,0000.0,0003.18,0009.25,0002.60
2022-01-17 07:36:00,,0825.0,5.02,0.00,22.6,22.3,00.0,31.6,24.4,10.5,0000.0,0003.18,0009.17,0002.61
2022-01-17 07:37:00,,0825.0,5.00,0.00,22.6,22.2,00.0,31.6,24.4,10.5,0000.0,0003.20,0009.18,0002.60
2022-01-17 07:38:00,,0824.9,4.99,0.00,22.6,22.1,00.0,31.6,24.4,10.5,0000.0,0003.19,0008.74,0002.60
2022-01-17 07:39:00,,0825.0,4.99,0.00,22.6,22.1,00.0,31.6,24.3,10.5,0000.0,0003.16,0007.69,0002.60
2022-01-17 07:40:00,,0824.9,5.01,0.00,22.6,22.0,00.0,31.6,24.3,10.5,0000.0,0003.16,0007.58,0002.59
2022-01-17 07:41:00,,0824.9,4.98,0.00,22.6,22.0,00.0,31.6,24.3,10.5,0000.0,0003.16,0007.49,0002.60
2022-01-17 07:42:00,,0824.8,5.00,0.00,22.5,21.9,00.0,31.6,24.3,10.6,0000.0,0003.13,0007.33,0002.59
2022-01-17 07:43:00,,0824.8,5.01,0.00,22.5,21.9,00.0,31.6,24.3,10.6,0000.0,0003.15,0007.40,0002.59
2022-01-17 07:44:00,,0824.7,5.00,0.00,22.5,21.9,00.0,31.6,24.2,10.6,0000.0,0003.12,0006.95,0002.57
2022-01-17 07:45:00,,0824.7,5.00,0.00,22.5,21.8,00.0,31.6,24.2,10.6,0000.0,0003.09,0006.80,0002.57
2022-01-17 07:46:00,,0824.8,5.00,0.00,22.5,21.8,00.0,31.6,24.2,10.6,0000.0,0003.08,0006.86,0002.56
2022-01-17 07:47:00,,0824.6,4.99,0.00,22.5,21.8,00.0,31.5,24.2,10.6,0000.0,0003.09,0006.69,0002.56
2022-01-17 07:48:00,,0824.7,5.01,0.00,22.4,21.8,00.0,31.5,24.2,10.6,0000.0,0003.08,0005.51,0002.55
2022-01-17 07:49:00,,0824.7,4.99,0.00,22.4,21.7,00.0,31.5,24.1,10.6,0000.0,0003.10,0005.16,0002.55
2022-01-17 07:50:00,,0824.6,5.01,0.00,22.4,21.7,00.0,31.5,24.1,10.7,0000.0,0003.13,0005.39,0002.57
2022-01-17 07:51:00,,0824.6,4.98,0.00,22.4,21.7,00.0,31.5,24.1,10.7,0000.0,0003.14,0005.15,0002.58
2022-01-17 07:52:00,,0824.6,5.02,0.00,22.4,21.6,00.0,31.5,24.1,10.7,0000.0,0003.15,0005.04,0002.59
2022-01-17 07:53:00,,0824.6,5.00,0.00,22.4,21.6,00.0,31.5,24.1,10.7,0000.0,0003.17,0005.21,0002.59
2022-01-17 07:54:00,,0824.6,5.00,0.00,22.3,21.6,00.0,31.5,24.1,10.7,0000.0,0003.17,0005.03,0002.59
2022-01-17 07:55:00,,0824.6,4.99,0.00,22.3,21.6,00.0,31.5,24.1,10.7,0000.0,0003.18,0005.02,0002.58
2022-01-17 07:56:00,,0824.6,5.01,0.00,22.3,21.7,00.0,31.4,24.1,10.7,0000.0,0003.18,0005.14,0002.56
2022-01-17 07:57:00,,0824.7,5.00,0.00,22.4,22.2,00.0,31.5,24.2,10.7,0000.0,0003.15,0005.02,0002.55
2022-01-17 07:58:00,,0824.6,5.00,0.00,22.5,22.9,00.0,31.5,24.5,10.6,0000.0,0003.14,0005.36,0002.53
2022-01-17 07:59:00,,0824.5,5.01,0.00,22.6,23.1,00.0,31.5,24.6,10.5,0000.0,0003.16,0005.98,0002.53
